Vertical_Velocity
-2 2 0 -0 -0 -3 1 2 0 4 0 4 -3 2 1 1 1 2 2 1 -2 -0 -0 -1 -1 0 -1
-1 1 -2 -3 5 2 -2 -2 0 -4 2 1 -3 -0 2 -2 2 0 -0 2 2 0 -0 1 -1 -1 -1
-1 1 1 3 -3 3 4 1 -1 5 -3 1 -1 -1 -1 2 -2 -5 1 1 3 -1 1 1 -0 -1 -0
0 2 -2 -1 1 3 -1 4 1 1 -5 8 0 -5 1 -2 -1 -2 0 1 1 1 2 1 -0 -1 -0
1 -0 3 -0 -2 1 -0 7 -0 -0 0 3 0 1 1 -3 -2 3 -1 -2 1 1 2 1 1 -0 -0
1 2 1 2 6 6 5 0 -1 4 -4 -1 -3 0 1 0 -1 2 -1 -1 -2 1 1 1 2 -0 -1
-1 3 0 4 6 3 2 5 3 1 1 1 0 -1 1 -0 -0 0 -1 -2 0 2 0 1 2 1 -1
-2 1 1 2 1 3 5 6 2 1 -0 -3 0 -1 -0 2 1 -1 -3 -0 1 2 0 0 2 -0 -1
1 -0 -1 0 2 1 -1 3 0 -1 0 1 0 -0 1 1 3 -2 -3 0 1 1 1 1 -0 -1 -2
-1 -0 -1 -0 -0 1 1 1 2 2 -0 1 2 2 -2 -1 3 -1 -0 0 0 1 1 1 -1 -1 -1
-2 -1 0 -2 0 1 0 1 2 0 -0 -2 0 1 1 1 -0 -1 -1 0 -1 2 1 1 1 0 -1
-1 -1 -0 1 1 -0 1 1 1 0 1 -0 0 2 1 2 -1 -1 -1 -0 -1 -0 -0 -1 1 -0 -1
-0 -2 -1 -4 2 1 0 1 1 0 1 1 2 -1 2 1 -1 -0 -1 -1 -1 -1 -0 -1 0 -0 -1
0 -2 -0 -2 1 1 1 0 0 1 1 2 0 1 2 1 1 0 0 -2 -1 -1 -1 -1 -1 -2 -0
2 -1 -1 -0 -0 1 1 1 -1 1 1 1 -0 -0 -0 0 0 2 0 -1 0 -2 -1 -1 -1 -2 -1
-1 -0 -1 1 -1 0 0 0 -1 -2 -1 2 1 -0 1 1 -0 -0 -1 0 -0 -1 -1 -1 2 -3 -1
0 -1 -1 -0 -1 0 1 1 1 -0 1 -0 0 -0 1 -0 -0 -0 0 -0 -0 -0 0 -1 1 5 -5
Height
1539 1540 1540 1539 1538 1538 1540 1538 1539 1540 1540 1539 1540 1541 1542 1543 1544 1545 1547 1546 1547 1547 1548 1549 1549 1550 1550
1533 1533 1532 1533 1532 1532 1534 1533 1534 1535 1536 1535 1534 1537 1537 1539 1540 1540 1543 1543 1543 1543 1545 1545 1546 1546 1547
1527 1527 1526 1526 1527 1527 1527 1529 1529 1529 1531 1531 1528 1532 1532 1534 1534 1537 1538 1539 1540 1540 1541 1541 1541 1542 1544
1519 1521 1521 1520 1521 1520 1522 1523 1523 1524 1526 1525 1523 1527 1528 1528 1530 1532 1533 1535 1536 1536 1537 1537 1537 1539 1540
1514 1514 1515 1514 1514 1515 1516 1516 1517 1519 1520 1520 1519 1522 1523 1524 1526 1528 1529 1530 1532 1533 1533 1534 1534 1535 1537
1508 1508 1508 1509 1507 1509 1510 1510 1512 1514 1514 1515 1516 1519 1519 1520 1522 1522 1524 1525 1526 1528 1529 1530 1530 1532 1534
1502 1502 1502 1502 1503 1504 1504 1505 1506 1508 1510 1510 1511 1514 1515 1515 1517 1517 1518 1520 1521 1523 1524 1526 1527 1529 1532
1498 1498 1497 1497 1497 1498 1500 1501 1502 1503 1504 1506 1508 1509 1510 1511 1511 1512 1514 1516 1518 1519 1521 1523 1525 1526 1528
1494 1494 1493 1493 1493 1494 1495 1497 1497 1499 1500 1502 1503 1505 1506 1506 1506 1506 1509 1512 1514 1516 1518 1520 1521 1523 1524
1490 1490 1489 1489 1490 1491 1491 1492 1493 1495 1497 1499 1499 1501 1501 1500 1501 1502 1505 1509 1511 1513 1515 1516 1518 1519 1521
1487 1487 1487 1487 1487 1487 1488 1489 1490 1491 1493 1494 1494 1495 1496 1495 1496 1499 1502 1505 1507 1510 1512 1513 1514 1515 1517
1484 1484 1484 1484 1484 1484 1485 1485 1486 1488 1489 1490 1490 1491 1491 1492 1493 1495 1498 1501 1503 1505 1507 1509 1510 1511 1512
1481 1481 1481 1481 1481 1481 1481 1481 1482 1483 1484 1485 1486 1487 1488 1489 1491 1493 1495 1497 1499 1501 1503 1504 1505 1506 1507
1478 1478 1478 1477 1478 1477 1477 1478 1479 1480 1481 1481 1483 1483 1485 1486 1488 1490 1492 1493 1494 1496 1497 1498 1500 1501 1502
1475 1474 1474 1474 1474 1474 1474 1475 1476 1477 1478 1478 1479 1480 1481 1482 1484 1486 1487 1487 1489 1490 1492 1493 1494 1495 1496
1471 1471 1471 1470 1471 1471 1471 1472 1473 1474 1474 1475 1475 1476 1477 1479 1480 1480 1482 1483 1484 1485 1486 1487 1489 1490 1490
1467 1467 1467 1467 1467 1468 1468 1468 1469 1470 1470 1471 1472 1473 1474 1474 1476 1476 1478 1479 1480 1481 1482 1483 1484 1486 1485